Storm Lake, IA

7:47 AM CDT on June 29, 2017 (GMT -0500)
Storm Lake Municipal

Weather History for KSLB - September, 2011

Change the Weather History Date:

Saturday, September 17, 2011

  Actual Average Record
Temperature  
Mean Temperature 51 °F -  
Max Temperature 54 °F 72 °F 93 °F (2000)
Min Temperature 48 °F 50 °F 42 °F (2012)
Degree Days  
Heating Degree Days 14    
Growing Degree Days 1 (Base 50)    
Moisture  
Dew Point 45 °F    
Average Humidity 79    
Maximum Humidity 88    
Minimum Humidity 73    
Precipitation  
Precipitation 0.00 in - - ()
Sea Level Pressure  
Sea Level Pressure 30.13 in    
Wind  
Wind Speed 9 mph (SE)    
Max Wind Speed 16 mph    
Max Gust Speed 22 mph    
Visibility 10 miles    
Events      
Averages and records for this station are not official NWS values.
T = Trace of Precipitation, MM = Missing Value Source: NWS Daily Summary

Daily Weather History Graph

Daily Weather History Graph

Search for Another Location

Airport or City:

Trip Planner

Search our weather history database for the weather conditions in past years. The results will help you decide how hot, cold, wet, or windy it might be!

Date:

Astronomy

Sep. 17, 2011 Rise Set
Actual Time 7:02 AM CDT 7:27 PM CDT
Civil Twilight 6:34 AM CDT 7:55 PM CDT
Nautical Twilight 6:01 AM CDT 8:29 PM CDT
Astronomical Twilight 5:26 AM CDT 9:03 PM CDT
Moon 9:49 PM CDT (9/17) 12:14 PM CDT (9/17)
Length of Visible Light 13h 21m
Length of Day
12h 24m
Waning Gibbous, 76% of the Moon is Illuminated
Sep 17
Waning Gibbous
Sep 20
Last Quarter
Sep 27
New
Oct 3
First Quarter
Oct 11
Full

Hourly Weather History & Observations

Time (CDT) Temp. Dew Point Humidity Pressure Visibility Wind Dir Wind Speed Gust Speed Precip Events Conditions
12:35 AM 49.1 °F 42.1 °F 77% 30.19 in 10.0 mi SE 5.8 mph - N/A   Overcast
12:55 AM 49.1 °F 42.1 °F 77% 30.18 in 10.0 mi SE 8.1 mph - N/A   Overcast
1:15 AM 48.9 °F 42.1 °F 77% 30.18 in 10.0 mi SE 6.9 mph - N/A   Overcast
1:35 AM 48.9 °F 42.3 °F 78% 30.18 in 10.0 mi SE 8.1 mph - N/A   Overcast
1:55 AM 49.1 °F 42.6 °F 78% 30.17 in 10.0 mi SE 6.9 mph - N/A   Overcast
2:15 AM 49.1 °F 42.8 °F 79% 30.17 in 10.0 mi SE 5.8 mph - N/A   Overcast
2:35 AM 49.1 °F 42.8 °F 79% 30.17 in 10.0 mi SE 6.9 mph - N/A   Overcast
2:55 AM 49.1 °F 43.0 °F 79% 30.17 in 10.0 mi SE 5.8 mph - N/A   Overcast
3:15 AM 49.1 °F 43.2 °F 80% 30.17 in 10.0 mi SE 8.1 mph - N/A   Overcast
3:35 AM 49.1 °F 43.2 °F 80% 30.16 in 10.0 mi SE 5.8 mph - N/A   Overcast
3:55 AM 49.1 °F 43.2 °F 80% 30.16 in 10.0 mi SE 5.8 mph - N/A   Overcast
4:15 AM 49.1 °F 43.3 °F 81% 30.16 in 10.0 mi SE 8.1 mph - N/A   Overcast
4:35 AM 49.1 °F 43.5 °F 81% 30.16 in 10.0 mi SE 5.8 mph - N/A   Overcast
4:55 AM 49.1 °F 43.7 °F 82% 30.16 in 10.0 mi SE 6.9 mph - N/A   Overcast
5:15 AM 49.1 °F 43.7 °F 82% 30.15 in 10.0 mi SE 8.1 mph - N/A   Overcast
5:35 AM 49.1 °F 43.7 °F 82% 30.15 in 10.0 mi SE 6.9 mph - N/A   Overcast
5:55 AM 49.1 °F 43.9 °F 82% 30.16 in 10.0 mi SE 8.1 mph - N/A   Overcast
6:15 AM 49.1 °F 44.1 °F 83% 30.15 in 10.0 mi SE 6.9 mph - N/A   Overcast
6:35 AM 49.1 °F 44.4 °F 84% 30.15 in 10.0 mi ESE 9.2 mph - N/A   Overcast
6:55 AM 48.9 °F 44.6 °F 85% 30.15 in 10.0 mi SE 6.9 mph - N/A   Overcast
7:15 AM 48.9 °F 44.6 °F 85% 30.16 in 10.0 mi SE 8.1 mph - N/A   Overcast
7:35 AM 49.1 °F 44.6 °F 84% 30.16 in 10.0 mi SE 8.1 mph - N/A   Overcast
7:55 AM 49.1 °F 44.6 °F 84% 30.16 in 10.0 mi SE 10.4 mph - N/A   Overcast
8:15 AM 49.1 °F 44.6 °F 84% 30.16 in 10.0 mi SE 8.1 mph - N/A   Overcast
8:35 AM 49.3 °F 44.6 °F 84% 30.16 in 10.0 mi SE 6.9 mph - N/A   Overcast
8:55 AM 49.8 °F 44.8 °F 83% 30.16 in 10.0 mi SE 8.1 mph - N/A   Overcast
9:15 AM 50.2 °F 44.8 °F 82% 30.16 in 10.0 mi SE 6.9 mph - N/A   Overcast
9:35 AM 50.9 °F 44.8 °F 80% 30.15 in 10.0 mi SE 8.1 mph 16.1 mph N/A   Overcast
9:55 AM 51.8 °F 44.8 °F 77% 30.14 in 10.0 mi SE 10.4 mph 18.4 mph N/A   Overcast
10:15 AM 52.5 °F 44.6 °F 74% 30.14 in 10.0 mi SE 10.4 mph - N/A   Overcast
10:35 AM 52.5 °F 44.6 °F 74% 30.14 in 10.0 mi SE 11.5 mph 17.3 mph N/A   Overcast
11:15 AM 53.1 °F 44.8 °F 73% 30.14 in 10.0 mi SE 10.4 mph - N/A   Overcast
11:35 AM 53.4 °F 45.0 °F 73% 30.14 in 10.0 mi SE 9.2 mph 18.4 mph N/A   Overcast
11:55 AM 53.4 °F 45.0 °F 73% 30.15 in 10.0 mi SSE 11.5 mph 18.4 mph N/A   Overcast
12:15 PM 53.1 °F 45.5 °F 75% 30.14 in 10.0 mi SE 9.2 mph - N/A   Overcast
12:35 PM 52.9 °F 45.9 °F 77% 30.14 in 10.0 mi SE 9.2 mph 18.4 mph N/A   Overcast
1:15 PM 53.1 °F 45.7 °F 76% 30.14 in 10.0 mi SE 15.0 mph 18.4 mph N/A   Overcast
1:35 PM 53.2 °F 46.2 °F 77% 30.13 in 7.0 mi SE 12.7 mph 20.7 mph N/A   Overcast
1:55 PM 52.7 °F 47.1 °F 81% 30.12 in 4.0 mi SE 10.4 mph 20.7 mph N/A   Overcast
2:15 PM 52.9 °F 46.9 °F 80% 30.11 in 10.0 mi SE 10.4 mph 19.6 mph N/A   Overcast
2:35 PM 53.4 °F 46.4 °F 77% 30.11 in 10.0 mi SE 11.5 mph 19.6 mph N/A   Overcast
2:55 PM 53.6 °F 46.4 °F 77% 30.11 in 10.0 mi SE 16.1 mph 20.7 mph N/A   Overcast
3:15 PM 53.4 °F 46.4 °F 77% 30.10 in 10.0 mi SE 12.7 mph 19.6 mph N/A   Overcast
3:35 PM 53.1 °F 46.9 °F 80% 30.09 in 4.0 mi SE 13.8 mph 21.9 mph N/A   Overcast
3:55 PM 52.9 °F 47.5 °F 82% 30.09 in 10.0 mi SE 15.0 mph 20.7 mph N/A   Overcast
4:15 PM 53.2 °F 47.1 °F 80% 30.09 in 10.0 mi SE 15.0 mph 19.6 mph N/A   Overcast
4:35 PM 53.2 °F 46.9 °F 79% 30.08 in 10.0 mi SE 13.8 mph 20.7 mph N/A   Overcast
4:55 PM 53.6 °F 47.1 °F 79% 30.08 in 10.0 mi SE 12.7 mph 20.7 mph N/A   Overcast
5:35 PM 53.6 °F 46.8 °F 78% 30.07 in 10.0 mi ESE 12.7 mph 20.7 mph N/A   Overcast
5:55 PM 53.8 °F 46.8 °F 77% 30.06 in 10.0 mi SE 11.5 mph 16.1 mph N/A   Overcast
6:15 PM 54.1 °F 46.8 °F 76% 30.06 in 10.0 mi ESE 11.5 mph 18.4 mph N/A   Overcast
6:35 PM 54.1 °F 46.6 °F 76% 30.06 in 10.0 mi SE 9.2 mph - N/A   Overcast
6:55 PM 54.5 °F 46.8 °F 75% 30.06 in 10.0 mi SE 11.5 mph - N/A   Overcast
7:15 PM 54.1 °F 46.8 °F 76% 30.06 in 10.0 mi SE 12.7 mph 17.3 mph N/A   Overcast
7:35 PM 54.0 °F 46.9 °F 77% 30.06 in 10.0 mi SE 11.5 mph 21.9 mph N/A   Overcast
7:55 PM 54.0 °F 47.1 °F 78% 30.06 in 10.0 mi SE 12.7 mph 16.1 mph N/A   Overcast
8:15 PM 53.8 °F 47.5 °F 79% 30.06 in 10.0 mi SE 9.2 mph - N/A   Overcast
8:35 PM 53.6 °F 47.5 °F 80% 30.06 in 10.0 mi SE 11.5 mph - N/A   Overcast
8:55 PM 53.6 °F 47.8 °F 81% 30.06 in 10.0 mi SE 11.5 mph 18.4 mph N/A   Overcast
9:15 PM 53.2 °F 48.4 °F 84% 30.06 in 5.0 mi SE 11.5 mph - N/A   Overcast
9:35 PM 52.7 °F 49.1 °F 88% 30.06 in 4.0 mi SE 8.1 mph - N/A   Overcast
10:15 PM 52.2 °F 49.5 °F 91% 30.06 in 5.0 mi SE 9.2 mph - N/A   Overcast
10:35 PM 52.5 °F 49.5 °F 89% 30.06 in 10.0 mi SE 6.9 mph - N/A   Overcast
10:55 PM 52.7 °F 49.3 °F 88% 30.06 in 7.0 mi SE 9.2 mph - N/A   Overcast
11:35 PM 52.7 °F 49.6 °F 89% 30.05 in 7.0 mi SE 6.9 mph - N/A   Overcast
11:55 PM 52.7 °F 49.6 °F 89% 30.05 in 7.0 mi SE 5.8 mph - N/A   Overcast